Weather History for KODX - August, 2014

Change the Weather History Date:

Monday, August 4, 2014

  Actual Average Record
Temperature  
Mean Temperature 74 °F 75 °F  
Max Temperature 85 °F 87 °F - ()
Min Temperature 63 °F 62 °F - ()
Degree Days  
Heating Degree Days 0 0  
Month to date heating degree days 0 0  
Since 1 June heating degree days 51 42  
Since 1 July heating degree days 19 5  
Cooling Degree Days 9 10  
Month to date cooling degree days 33 40  
Year to date cooling degree days 433 540  
Since 1 June cooling degree days 364 499  
Growing Degree Days 24 (Base 50)    
Moisture  
Dew Point 66 °F    
Average Humidity 78    
Maximum Humidity 100    
Minimum Humidity 55    
Precipitation  
Precipitation 0.00 in 0.09 in - ()
Month to date precipitation 0.04 0.38  
Year to date precipitation 12.41 16.13  
Sea Level Pressure  
Sea Level Pressure 30.03 in    
Wind  
Wind Speed 7 mph (East)    
Max Wind Speed 15 mph    
Max Gust Speed 20 mph    
Visibility 8 miles    
Events      
T = Trace of Precipitation, MM = Missing Value Source: NWS Daily Summary

Daily Weather History Graph

Daily Weather History Graph

Search for Another Location

Airport or City:

Trip Planner

Search our weather history database for the weather conditions in past years. The results will help you decide how hot, cold, wet, or windy it might be!

Date:

Astronomy

Aug. 04, 2014 Rise Set
Actual Time 6:33 AM CDT 8:49 PM CDT
Civil Twilight 6:02 AM CDT 9:20 PM CDT
Nautical Twilight 5:23 AM CDT 9:58 PM CDT
Astronomical Twilight 4:41 AM CDT 10:40 PM CDT
Moon 3:03 PM CDT (8/4) 12:41 AM CDT (8/4)
Length of Visible Light 15h 18m
Length of Day
14h 16m
First Quarter, 57% of the Moon is Illuminated
Aug 4
First Quarter
Aug 10
Full
Aug 17
Last Quarter
Aug 25
New
Sep 2
First Quarter

Hourly Weather History & Observations

Time (CDT) Temp. Heat Index Dew Point Humidity Pressure Visibility Wind Dir Wind Speed Gust Speed Precip Events Conditions
12:53 AM 70.0 °F - 66.0 °F 87% 30.05 in 10.0 mi SE 4.6 mph - N/A   Clear
1:53 AM 68.0 °F - 66.0 °F 93% 30.04 in 8.0 mi East 3.5 mph - N/A   Clear
2:53 AM 68.0 °F - 66.0 °F 93% 30.03 in 7.0 mi Calm Calm - N/A   Clear
3:37 AM 64.0 °F - 63.0 °F 96% 30.05 in 2.5 mi NNE 3.5 mph - N/A   Clear
3:53 AM 64.0 °F - 63.0 °F 96% 30.02 in 2.5 mi Calm Calm - N/A   Scattered Clouds
4:07 AM 64.0 °F - 64.0 °F 100% 30.06 in 3.0 mi WSW 3.5 mph - N/A   Mostly Cloudy
4:53 AM 64.4 °F - 64.4 °F 100% 30.06 in 2.5 mi North 4.6 mph - N/A   Clear
5:28 AM 63.0 °F - 63.0 °F 100% 30.06 in 2.5 mi Calm Calm - N/A   Partly Cloudy
5:46 AM 64.0 °F - 63.0 °F 96% 30.07 in 3.0 mi NNW 4.6 mph - N/A   Partly Cloudy
5:53 AM 64.0 °F - 63.0 °F 96% 30.04 in 3.0 mi North 4.6 mph - N/A   Scattered Clouds
6:53 AM 68.0 °F - 66.0 °F 93% 30.07 in 4.0 mi NNE 5.8 mph - N/A   Mostly Cloudy
7:53 AM 69.1 °F - 64.0 °F 84% 30.07 in 10.0 mi Calm Calm - N/A   Clear
8:53 AM 71.1 °F - 64.9 °F 81% 30.06 in 10.0 mi ESE 3.5 mph - N/A   Clear
9:53 AM 75.0 °F - 66.0 °F 73% 30.06 in 10.0 mi East 6.9 mph - N/A   Partly Cloudy
10:53 AM 79.0 °F - 66.0 °F 64% 30.05 in 10.0 mi ESE 8.1 mph - N/A   Clear
11:53 AM 80.1 °F 82.3 °F 66.9 °F 64% 30.05 in 10.0 mi East 10.4 mph - N/A   Partly Cloudy
12:53 PM 80.1 °F 82.7 °F 68.0 °F 67% 30.04 in 10.0 mi East 6.9 mph - N/A   Clear
1:53 PM 80.1 °F 82.7 °F 68.0 °F 67% 30.03 in 10.0 mi East 9.2 mph - N/A   Clear
2:53 PM 82.9 °F 85.8 °F 68.0 °F 60% 30.01 in 10.0 mi East 9.2 mph - N/A   Clear
3:53 PM 82.9 °F 85.8 °F 68.0 °F 60% 30.01 in 10.0 mi East 9.2 mph - N/A   Clear
4:53 PM 84.0 °F 87.0 °F 68.0 °F 58% 30.00 in 10.0 mi East 13.8 mph - N/A   Clear
5:53 PM 82.9 °F 85.8 °F 68.0 °F 60% 29.99 in 10.0 mi ESE 12.7 mph - N/A   Clear
6:53 PM 82.0 °F 83.8 °F 64.9 °F 56% 29.98 in 10.0 mi ESE 11.5 mph - N/A   Clear
7:53 PM 79.0 °F - 64.0 °F 60% 29.98 in 10.0 mi East 9.2 mph - N/A   Clear
8:53 PM 75.0 °F - 66.0 °F 73% 29.99 in 10.0 mi East 4.6 mph - N/A   Clear
9:53 PM 72.0 °F - 66.9 °F 84% 30.01 in 10.0 mi ESE 5.8 mph - N/A   Clear
10:53 PM 71.1 °F - 66.9 °F 87% 30.01 in 10.0 mi ESE 6.9 mph - N/A   Clear
11:53 PM 70.0 °F - 66.0 °F 87% 30.00 in 10.0 mi ESE 5.8 mph - N/A   Clear